User: anonymous   Login
Location: Meriden
(44.0740°N, 93.3870°W)
Time: 15:50:23
(UTC-06:00)
Language:

Hamsat - Orbit

View from above orbital plane
View from above orbital plane
View from above satellite
View from above satellite

Ground track
Ground track

The orbit data is extracted from the following two-line orbital elements,

1 28650U 05017B   14329.51577266  .00003566  00000-0  40944-3 0  9143
2 28650 097.5652 326.5154 0024310 349.4616 010.6087 14.86236779517183
Epoch (UTC): 25 November 2014 12:22:42
Eccentricity: 0.0024310
inclination: 97.5652°
perigee height: 593 km
apogee height: 626 km
right ascension of ascending node: 326.5154°
argument of perigee: 349.4616°
revolutions per day: 14.86236779
mean anomaly at epoch: 10.6087°
orbit number at epoch: 51718

The dashed part of the orbit path shows where the satellite is in the earth's shadow,  

DLR